STARLINK-3802 (52286 NORAD) Tracking and Keplerian Element Data

This shows tracking and keplerian element data for the satellite.

Feedback or suggestion? Click here.




ElementValue
Catalog52286
NameSTARLINK-3802
Epoch Orbit130
Epoch Day167.08334491
Epoch Year2022
RAAN101.3897
Inclination53.2172
Eccentricity0.0001197
Argument of Perigee86.8104
Mean Anonmoly180.5229
Mean Motion15.54928298
Decay Rate-0.00713056
L11 52286U 22041AB 22167.08334491 -.00713056 00000+0 -11445-1 0 9991
L22 52286 53.2172 101.3897 0001197 86.8104 180.5229 15.54928298 1303

Live tracking and technical data element details for STARLINK-3802 (NORAD 52286). STARLINK-3802 can be tracked NOW for your location showing map with azimuth and elevation plus other details from your city location.

Track the satellite on the map from your city or location and see movement details for azimuth, elevation, latitude, longitude, range, height, and movement on the map or in text.







IsCatalogInMostPopularTable: catalog: 52286, numindb: 1
Update: records affected: 1



GetName: 52286 STARLINK-3802

Hit Count: updated at: Mon, 27 Jun 2022 05:34:51 GMT